Time,TemperatureF,DewpointF,PressureIn,WindDirection,WindDirectionDegrees,WindSpeedMPH,WindSpeedGustMPH,Humidity,HourlyPrecipIn,Conditions,Clouds,dailyrainin,SoftwareType,DateUTC
2013-02-16 00:01:00,30.9,30.9,-100.00,North,-999,-999.0,-999.0,99,-99.99,,,-99.99,,2013-02-16 05:01:00,
2013-02-16 00:04:00,30.9,30.9,-100.00,North,-999,-999.0,-999.0,99,-99.99,,,-99.99,,2013-02-16 05:04:00,
2013-02-16 00:06:00,30.9,30.9,-100.00,North,-999,-999.0,-999.0,99,-99.99,,,-99.99,,2013-02-16 05:06:00,
2013-02-16 00:11:00,30.9,30.9,-100.00,North,-999,-999.0,-999.0,99,-99.99,,,-99.99,,2013-02-16 05:11:00,
2013-02-16 00:14:00,30.9,30.9,-100.00,North,-999,-999.0,-999.0,99,-99.99,,,-99.99,,2013-02-16 05:14:00,
2013-02-16 00:19:00,31.1,31.1,-100.00,North,-999,-999.0,-999.0,99,-99.99,,,-99.99,,2013-02-16 05:19:00,
2013-02-16 00:24:00,31.1,31.1,-100.00,North,-999,-999.0,-999.0,99,-99.99,,,-99.99,,2013-02-16 05:24:00,
2013-02-16 00:29:00,31.1,31.1,-100.00,North,-999,-999.0,-999.0,99,-99.99,,,-99.99,,2013-02-16 05:29:00,
2013-02-16 00:34:00,31.1,31.1,-100.00,North,-999,-999.0,-999.0,99,-99.99,,,-99.99,,2013-02-16 05:34:00,
2013-02-16 00:39:00,30.9,30.9,-100.00,North,-999,-999.0,-999.0,99,-99.99,,,-99.99,,2013-02-16 05:39:00,
2013-02-16 00:44:00,30.9,30.9,-100.00,North,-999,-999.0,-999.0,99,-99.99,,,-99.99,,2013-02-16 05:44:00,
2013-02-16 00:49:00,30.7,30.7,-100.00,North,-999,-999.0,-999.0,99,-99.99,,,-99.99,,2013-02-16 05:49:00,
2013-02-16 00:54:00,30.7,30.7,-100.00,North,-999,-999.0,-999.0,99,-99.99,,,-99.99,,2013-02-16 05:54:00,
2013-02-16 01:01:00,30.9,30.9,-100.00,North,-999,-999.0,-999.0,99,-99.99,,,-99.99,,2013-02-16 06:01:00,
2013-02-16 01:06:00,30.9,30.9,-100.00,North,-999,-999.0,-999.0,99,-99.99,,,-99.99,,2013-02-16 06:06:00,
2013-02-16 01:11:00,30.9,30.9,-100.00,North,-999,-999.0,-999.0,99,-99.99,,,-99.99,,2013-02-16 06:11:00,
2013-02-16 01:16:00,31.1,31.1,-100.00,North,-999,-999.0,-999.0,99,-99.99,,,-99.99,,2013-02-16 06:16:00,
2013-02-16 01:21:00,31.1,31.1,-100.00,North,-999,-999.0,-999.0,99,-99.99,,,-99.99,,2013-02-16 06:21:00,
2013-02-16 01:26:00,31.3,31.2,-100.00,North,-999,-999.0,-999.0,99,-99.99,,,-99.99,,2013-02-16 06:26:00,
2013-02-16 01:31:00,31.3,31.2,-100.00,North,-999,-999.0,-999.0,99,-99.99,,,-99.99,,2013-02-16 06:31:00,
2013-02-16 01:36:00,31.3,31.2,-100.00,North,-999,-999.0,-999.0,99,-99.99,,,-99.99,,2013-02-16 06:36:00,
2013-02-16 01:41:00,31.3,31.2,-100.00,North,-999,-999.0,-999.0,99,-99.99,,,-99.99,,2013-02-16 06:41:00,
2013-02-16 01:46:00,31.3,31.2,-100.00,North,-999,-999.0,-999.0,99,-99.99,,,-99.99,,2013-02-16 06:46:00,
2013-02-16 01:51:00,31.3,31.2,-100.00,North,-999,-999.0,-999.0,99,-99.99,,,-99.99,,2013-02-16 06:51:00,
2013-02-16 01:56:00,31.1,31.1,-100.00,North,-999,-999.0,-999.0,99,-99.99,,,-99.99,,2013-02-16 06:56:00,
2013-02-16 02:01:00,30.9,30.9,-100.00,North,-999,-999.0,-999.0,99,-99.99,,,-99.99,,2013-02-16 07:01:00,
2013-02-16 02:06:00,30.9,30.9,-100.00,North,-999,-999.0,-999.0,99,-99.99,,,-99.99,,2013-02-16 07:06:00,
2013-02-16 02:11:00,30.7,30.7,-100.00,North,-999,-999.0,-999.0,99,-99.99,,,-99.99,,2013-02-16 07:11:00,
2013-02-16 02:16:00,30.9,30.9,-100.00,North,-999,-999.0,-999.0,99,-99.99,,,-99.99,,2013-02-16 07:16:00,
2013-02-16 02:21:00,30.9,30.9,-100.00,North,-999,-999.0,-999.0,99,-99.99,,,-99.99,,2013-02-16 07:21:00,
2013-02-16 02:26:00,31.1,31.1,-100.00,North,-999,-999.0,-999.0,99,-99.99,,,-99.99,,2013-02-16 07:26:00,
2013-02-16 02:31:00,31.1,31.1,-100.00,North,-999,-999.0,-999.0,99,-99.99,,,-99.99,,2013-02-16 07:31:00,
2013-02-16 02:36:00,30.9,30.9,-100.00,North,-999,-999.0,-999.0,99,-99.99,,,-99.99,,2013-02-16 07:36:00,
2013-02-16 02:41:00,30.9,30.9,-100.00,North,-999,-999.0,-999.0,99,-99.99,,,-99.99,,2013-02-16 07:41:00,
2013-02-16 02:46:00,30.9,30.9,-100.00,North,-999,-999.0,-999.0,99,-99.99,,,-99.99,,2013-02-16 07:46:00,
2013-02-16 02:51:00,30.9,30.9,-100.00,North,-999,-999.0,-999.0,99,-99.99,,,-99.99,,2013-02-16 07:51:00,
2013-02-16 02:56:00,30.7,30.7,-100.00,North,-999,-999.0,-999.0,99,-99.99,,,-99.99,,2013-02-16 07:56:00,
2013-02-16 03:01:00,30.7,30.7,-100.00,North,-999,-999.0,-999.0,99,-99.99,,,-99.99,,2013-02-16 08:01:00,
2013-02-16 03:06:00,30.7,30.7,-100.00,North,-999,-999.0,-999.0,99,-99.99,,,-99.99,,2013-02-16 08:06:00,
2013-02-16 03:11:00,30.7,30.7,-100.00,North,-999,-999.0,-999.0,99,-99.99,,,-99.99,,2013-02-16 08:11:00,
2013-02-16 03:16:00,30.6,30.5,-100.00,North,-999,-999.0,-999.0,99,-99.99,,,-99.99,,2013-02-16 08:16:00,
2013-02-16 03:21:00,30.6,30.5,-100.00,North,-999,-999.0,-999.0,99,-99.99,,,-99.99,,2013-02-16 08:21:00,
2013-02-16 03:26:00,30.6,30.5,-100.00,North,-999,-999.0,-999.0,99,-99.99,,,-99.99,,2013-02-16 08:26:00,
2013-02-16 03:31:00,30.6,30.5,-100.00,North,-999,-999.0,-999.0,99,-99.99,,,-99.99,,2013-02-16 08:31:00,
2013-02-16 03:36:00,30.6,30.5,-100.00,North,-999,-999.0,-999.0,99,-99.99,,,-99.99,,2013-02-16 08:36:00,
2013-02-16 03:41:00,30.4,30.3,-100.00,North,-999,-999.0,-999.0,99,-99.99,,,-99.99,,2013-02-16 08:41:00,
2013-02-16 03:46:00,30.6,30.5,-100.00,North,-999,-999.0,-999.0,99,-99.99,,,-99.99,,2013-02-16 08:46:00,
2013-02-16 03:51:00,30.4,30.3,-100.00,North,-999,-999.0,-999.0,99,-99.99,,,-99.99,,2013-02-16 08:51:00,
2013-02-16 03:56:00,30.4,30.3,-100.00,North,-999,-999.0,-999.0,99,-99.99,,,-99.99,,2013-02-16 08:56:00,
2013-02-16 04:01:00,30.4,30.3,-100.00,North,-999,-999.0,-999.0,99,-99.99,,,-99.99,,2013-02-16 09:01:00,
2013-02-16 04:06:00,30.4,30.3,-100.00,North,-999,-999.0,-999.0,99,-99.99,,,-99.99,,2013-02-16 09:06:00,
2013-02-16 04:11:00,30.4,30.3,-100.00,North,-999,-999.0,-999.0,99,-99.99,,,-99.99,,2013-02-16 09:11:00,
2013-02-16 04:16:00,30.2,30.2,-100.00,North,-999,-999.0,-999.0,99,-99.99,,,-99.99,,2013-02-16 09:16:00,
2013-02-16 04:21:00,30.2,30.2,-100.00,North,-999,-999.0,-999.0,99,-99.99,,,-99.99,,2013-02-16 09:21:00,
2013-02-16 04:26:00,30.2,30.2,-100.00,North,-999,-999.0,-999.0,99,-99.99,,,-99.99,,2013-02-16 09:26:00,
2013-02-16 04:31:00,30.2,30.2,-100.00,North,-999,-999.0,-999.0,99,-99.99,,,-99.99,,2013-02-16 09:31:00,
2013-02-16 04:36:00,30.2,30.2,-100.00,North,-999,-999.0,-999.0,99,-99.99,,,-99.99,,2013-02-16 09:36:00,
2013-02-16 04:41:00,30.2,30.2,-100.00,North,-999,-999.0,-999.0,99,-99.99,,,-99.99,,2013-02-16 09:41:00,
2013-02-16 04:46:00,30.2,30.2,-100.00,North,-999,-999.0,-999.0,99,-99.99,,,-99.99,,2013-02-16 09:46:00,
2013-02-16 04:51:00,30.2,30.2,-100.00,North,-999,-999.0,-999.0,99,-99.99,,,-99.99,,2013-02-16 09:51:00,
2013-02-16 04:56:00,30.2,30.2,-100.00,North,-999,-999.0,-999.0,99,-99.99,,,-99.99,,2013-02-16 09:56:00,
2013-02-16 05:01:00,30.2,30.2,-100.00,North,-999,-999.0,-999.0,99,-99.99,,,-99.99,,2013-02-16 10:01:00,
2013-02-16 05:06:00,30.2,30.2,-100.00,North,-999,-999.0,-999.0,99,-99.99,,,-99.99,,2013-02-16 10:06:00,
2013-02-16 05:11:00,30.2,30.2,-100.00,North,-999,-999.0,-999.0,99,-99.99,,,-99.99,,2013-02-16 10:11:00,
2013-02-16 05:17:00,30.2,30.2,-100.00,North,-999,-999.0,-999.0,99,-99.99,,,-99.99,,2013-02-16 10:17:00,
2013-02-16 05:22:00,30.2,30.2,-100.00,North,-999,-999.0,-999.0,99,-99.99,,,-99.99,,2013-02-16 10:22:00,
2013-02-16 05:27:00,30.2,30.2,-100.00,North,-999,-999.0,-999.0,99,-99.99,,,-99.99,,2013-02-16 10:27:00,
2013-02-16 05:32:00,30.2,30.2,-100.00,North,-999,-999.0,-999.0,99,-99.99,,,-99.99,,2013-02-16 10:32:00,
2013-02-16 05:37:00,30.2,30.2,-100.00,North,-999,-999.0,-999.0,99,-99.99,,,-99.99,,2013-02-16 10:37:00,
2013-02-16 05:42:00,30.2,30.2,-100.00,North,-999,-999.0,-999.0,99,-99.99,,,-99.99,,2013-02-16 10:42:00,
2013-02-16 05:47:00,30.2,30.2,-100.00,North,-999,-999.0,-999.0,99,-99.99,,,-99.99,,2013-02-16 10:47:00,
2013-02-16 05:52:00,30.0,30.0,-100.00,North,-999,-999.0,-999.0,99,-99.99,,,-99.99,,2013-02-16 10:52:00,
2013-02-16 05:57:00,30.2,30.2,-100.00,North,-999,-999.0,-999.0,99,-99.99,,,-99.99,,2013-02-16 10:57:00,
2013-02-16 06:02:00,30.0,30.0,-100.00,North,-999,-999.0,-999.0,99,-99.99,,,-99.99,,2013-02-16 11:02:00,
2013-02-16 06:07:00,30.2,30.2,-100.00,North,-999,-999.0,-999.0,99,-99.99,,,-99.99,,2013-02-16 11:07:00,
2013-02-16 06:12:00,30.0,30.0,-100.00,North,-999,-999.0,-999.0,99,-99.99,,,-99.99,,2013-02-16 11:12:00,
2013-02-16 06:19:00,30.0,30.0,-100.00,North,-999,-999.0,-999.0,99,-99.99,,,-99.99,,2013-02-16 11:19:00,
2013-02-16 06:24:00,30.0,30.0,-100.00,North,-999,-999.0,-999.0,99,-99.99,,,-99.99,,2013-02-16 11:24:00,
2013-02-16 06:29:00,29.8,29.8,-100.00,North,-999,-999.0,-999.0,99,-99.99,,,-99.99,,2013-02-16 11:29:00,
2013-02-16 06:34:00,29.8,29.8,-100.00,North,-999,-999.0,-999.0,99,-99.99,,,-99.99,,2013-02-16 11:34:00,
2013-02-16 06:39:00,29.8,29.8,-100.00,North,-999,-999.0,-999.0,99,-99.99,,,-99.99,,2013-02-16 11:39:00,
2013-02-16 06:44:00,29.7,29.6,-100.00,North,-999,-999.0,-999.0,99,-99.99,,,-99.99,,2013-02-16 11:44:00,
2013-02-16 06:49:00,29.7,29.6,-100.00,North,-999,-999.0,-999.0,99,-99.99,,,-99.99,,2013-02-16 11:49:00,
2013-02-16 06:54:00,29.7,29.6,-100.00,North,-999,-999.0,-999.0,99,-99.99,,,-99.99,,2013-02-16 11:54:00,
2013-02-16 06:59:00,29.7,29.6,-100.00,North,-999,-999.0,-999.0,99,-99.99,,,-99.99,,2013-02-16 11:59:00,
2013-02-16 07:04:00,29.7,29.6,-100.00,North,-999,-999.0,-999.0,99,-99.99,,,-99.99,,2013-02-16 12:04:00,
2013-02-16 07:09:00,29.8,29.8,-100.00,North,-999,-999.0,-999.0,99,-99.99,,,-99.99,,2013-02-16 12:09:00,
2013-02-16 07:14:00,29.8,29.8,-100.00,North,-999,-999.0,-999.0,99,-99.99,,,-99.99,,2013-02-16 12:14:00,
2013-02-16 07:19:00,29.8,29.8,-100.00,North,-999,-999.0,-999.0,99,-99.99,,,-99.99,,2013-02-16 12:19:00,
2013-02-16 07:24:00,30.0,30.0,-100.00,North,-999,-999.0,-999.0,99,-99.99,,,-99.99,,2013-02-16 12:24:00,
2013-02-16 07:29:00,29.8,29.8,-100.00,North,-999,-999.0,-999.0,99,-99.99,,,-99.99,,2013-02-16 12:29:00,
2013-02-16 07:34:00,29.8,29.8,-100.00,North,-999,-999.0,-999.0,99,-99.99,,,-99.99,,2013-02-16 12:34:00,
2013-02-16 07:39:00,29.8,29.8,-100.00,North,-999,-999.0,-999.0,99,-99.99,,,-99.99,,2013-02-16 12:39:00,
2013-02-16 07:44:00,29.8,29.8,-100.00,North,-999,-999.0,-999.0,99,-99.99,,,-99.99,,2013-02-16 12:44:00,
2013-02-16 07:49:00,29.8,29.8,-100.00,North,-999,-999.0,-999.0,99,-99.99,,,-99.99,,2013-02-16 12:49:00,
2013-02-16 07:54:00,30.0,30.0,-100.00,North,-999,-999.0,-999.0,99,-99.99,,,-99.99,,2013-02-16 12:54:00,
2013-02-16 07:59:00,30.2,30.2,-100.00,North,-999,-999.0,-999.0,99,-99.99,,,-99.99,,2013-02-16 12:59:00,
2013-02-16 08:04:00,30.4,30.3,-100.00,North,-999,-999.0,-999.0,99,-99.99,,,-99.99,,2013-02-16 13:04:00,
2013-02-16 08:09:00,30.6,30.5,-100.00,North,-999,-999.0,-999.0,99,-99.99,,,-99.99,,2013-02-16 13:09:00,
2013-02-16 08:14:00,30.7,30.7,-100.00,North,-999,-999.0,-999.0,99,-99.99,,,-99.99,,2013-02-16 13:14:00,
2013-02-16 08:19:00,30.9,30.9,-100.00,North,-999,-999.0,-999.0,99,-99.99,,,-99.99,,2013-02-16 13:19:00,
2013-02-16 08:24:00,31.1,31.1,-100.00,North,-999,-999.0,-999.0,99,-99.99,,,-99.99,,2013-02-16 13:24:00,
2013-02-16 08:29:00,31.1,31.1,-100.00,North,-999,-999.0,-999.0,99,-99.99,,,-99.99,,2013-02-16 13:29:00,
2013-02-16 08:34:00,31.1,31.1,-100.00,North,-999,-999.0,-999.0,99,-99.99,,,-99.99,,2013-02-16 13:34:00,
2013-02-16 08:39:00,31.3,31.2,-100.00,North,-999,-999.0,-999.0,99,-99.99,,,-99.99,,2013-02-16 13:39:00,
2013-02-16 08:44:00,31.5,31.4,-100.00,North,-999,-999.0,-999.0,99,-99.99,,,-99.99,,2013-02-16 13:44:00,
2013-02-16 08:49:00,31.8,31.8,-100.00,North,-999,-999.0,-999.0,99,-99.99,,,-99.99,,2013-02-16 13:49:00,
2013-02-16 08:54:00,31.6,31.6,-100.00,North,-999,-999.0,-999.0,99,-99.99,,,-99.99,,2013-02-16 13:54:00,
2013-02-16 08:59:00,32.0,32.0,-100.00,North,-999,-999.0,-999.0,99,-99.99,,,-99.99,,2013-02-16 13:59:00,
2013-02-16 09:04:00,32.4,32.3,-100.00,North,-999,-999.0,-999.0,99,-99.99,,,-99.99,,2013-02-16 14:04:00,
2013-02-16 09:09:00,32.5,32.5,-100.00,North,-999,-999.0,-999.0,99,-99.99,,,-99.99,,2013-02-16 14:09:00,
2013-02-16 09:14:00,32.9,32.9,-100.00,North,-999,-999.0,-999.0,99,-99.99,,,-99.99,,2013-02-16 14:14:00,
2013-02-16 09:19:00,32.9,32.9,-100.00,North,-999,-999.0,-999.0,99,-99.99,,,-99.99,,2013-02-16 14:19:00,
2013-02-16 09:24:00,32.9,32.9,-100.00,North,-999,-999.0,-999.0,99,-99.99,,,-99.99,,2013-02-16 14:24:00,
2013-02-16 09:29:00,33.3,33.2,-100.00,North,-999,-999.0,-999.0,99,-99.99,,,-99.99,,2013-02-16 14:29:00,
2013-02-16 09:34:00,33.4,33.4,-100.00,North,-999,-999.0,-999.0,99,-99.99,,,-99.99,,2013-02-16 14:34:00,
2013-02-16 09:39:00,33.6,33.6,-100.00,North,-999,-999.0,-999.0,99,-99.99,,,-99.99,,2013-02-16 14:39:00,
2013-02-16 09:44:00,34.0,33.9,-100.00,North,-999,-999.0,-999.0,99,-99.99,,,-99.99,,2013-02-16 14:44:00,
2013-02-16 09:49:00,34.0,33.9,-100.00,North,-999,-999.0,-999.0,99,-99.99,,,-99.99,,2013-02-16 14:49:00,
2013-02-16 09:54:00,34.3,34.3,-100.00,North,-999,-999.0,-999.0,99,-99.99,,,-99.99,,2013-02-16 14:54:00,
2013-02-16 09:59:00,34.2,34.1,-100.00,North,-999,-999.0,-999.0,99,-99.99,,,-99.99,,2013-02-16 14:59:00,
2013-02-16 10:04:00,33.8,33.8,-100.00,North,-999,-999.0,-999.0,99,-99.99,,,-99.99,,2013-02-16 15:04:00,
2013-02-16 10:09:00,34.3,34.3,-100.00,North,-999,-999.0,-999.0,99,-99.99,,,-99.99,,2013-02-16 15:09:00,
2013-02-16 10:14:00,34.5,34.5,-100.00,North,-999,-999.0,-999.0,99,-99.99,,,-99.99,,2013-02-16 15:14:00,
2013-02-16 10:19:00,35.2,33.9,-100.00,North,-999,-999.0,-999.0,96,-99.99,,,-99.99,,2013-02-16 15:19:00,
2013-02-16 10:24:00,35.8,35.6,-100.00,North,-999,-999.0,-999.0,99,-99.99,,,-99.99,,2013-02-16 15:24:00,
2013-02-16 10:29:00,36.0,35.4,-100.00,North,-999,-999.0,-999.0,98,-99.99,,,-99.99,,2013-02-16 15:29:00,
2013-02-16 10:34:00,36.1,34.2,-100.00,North,-999,-999.0,-999.0,94,-99.99,,,-99.99,,2013-02-16 15:34:00,
2013-02-16 10:39:00,36.0,35.5,-100.00,North,-999,-999.0,-999.0,98,-99.99,,,-99.99,,2013-02-16 15:39:00,
2013-02-16 10:44:00,35.6,35.0,-100.00,North,-999,-999.0,-999.0,98,-99.99,,,-99.99,,2013-02-16 15:44:00,
2013-02-16 10:49:00,35.4,32.6,-100.00,North,-999,-999.0,-999.0,92,-99.99,,,-99.99,,2013-02-16 15:49:00,
2013-02-16 10:54:00,35.4,31.9,-100.00,North,-999,-999.0,-999.0,90,-99.99,,,-99.99,,2013-02-16 15:54:00,
2013-02-16 10:59:00,35.6,32.7,-100.00,North,-999,-999.0,-999.0,91,-99.99,,,-99.99,,2013-02-16 15:59:00,
2013-02-16 11:04:00,35.6,31.9,-100.00,North,-999,-999.0,-999.0,89,-99.99,,,-99.99,,2013-02-16 16:04:00,
2013-02-16 11:09:00,36.0,34.1,-100.00,North,-999,-999.0,-999.0,94,-99.99,,,-99.99,,2013-02-16 16:09:00,
2013-02-16 11:14:00,36.7,33.3,-100.00,North,-999,-999.0,-999.0,90,-99.99,,,-99.99,,2013-02-16 16:14:00,
2013-02-16 11:19:00,37.2,32.0,-100.00,North,-999,-999.0,-999.0,85,-99.99,,,-99.99,,2013-02-16 16:19:00,
2013-02-16 11:24:00,36.5,31.7,-100.00,North,-999,-999.0,-999.0,86,-99.99,,,-99.99,,2013-02-16 16:24:00,
2013-02-16 11:29:00,36.1,31.6,-100.00,North,-999,-999.0,-999.0,87,-99.99,,,-99.99,,2013-02-16 16:29:00,
2013-02-16 11:34:00,36.0,33.6,-100.00,North,-999,-999.0,-999.0,93,-99.99,,,-99.99,,2013-02-16 16:34:00,
2013-02-16 11:39:00,36.3,31.2,-100.00,North,-999,-999.0,-999.0,85,-99.99,,,-99.99,,2013-02-16 16:39:00,
2013-02-16 11:45:00,36.3,30.8,-100.00,North,-999,-999.0,-999.0,84,-99.99,,,-99.99,,2013-02-16 16:45:00,
2013-02-16 11:50:00,36.5,32.0,-100.00,North,-999,-999.0,-999.0,87,-99.99,,,-99.99,,2013-02-16 16:50:00,
2013-02-16 11:55:00,36.5,28.0,-100.00,North,-999,-999.0,-999.0,76,-99.99,,,-99.99,,2013-02-16 16:55:00,
2013-02-16 12:00:00,36.7,30.3,-100.00,North,-999,-999.0,-999.0,82,-99.99,,,-99.99,,2013-02-16 17:00:00,
2013-02-16 12:05:00,36.7,29.5,-100.00,North,-999,-999.0,-999.0,80,-99.99,,,-99.99,,2013-02-16 17:05:00,
2013-02-16 12:10:00,37.0,28.5,-100.00,North,-999,-999.0,-999.0,76,-99.99,,,-99.99,,2013-02-16 17:10:00,
2013-02-16 12:15:00,36.9,28.3,-100.00,North,-999,-999.0,-999.0,76,-99.99,,,-99.99,,2013-02-16 17:15:00,
2013-02-16 12:20:00,36.5,26.9,-100.00,North,-999,-999.0,-999.0,73,-99.99,,,-99.99,,2013-02-16 17:20:00,
2013-02-16 12:25:00,36.7,25.7,-100.00,North,-999,-999.0,-999.0,69,-99.99,,,-99.99,,2013-02-16 17:25:00,
2013-02-16 12:30:00,36.5,27.7,-100.00,North,-999,-999.0,-999.0,75,-99.99,,,-99.99,,2013-02-16 17:30:00,
2013-02-16 12:35:00,36.1,25.5,-100.00,North,-999,-999.0,-999.0,70,-99.99,,,-99.99,,2013-02-16 17:35:00,
2013-02-16 12:40:00,36.5,26.3,-100.00,North,-999,-999.0,-999.0,71,-99.99,,,-99.99,,2013-02-16 17:40:00,
2013-02-16 12:45:00,37.2,25.9,-100.00,North,-999,-999.0,-999.0,68,-99.99,,,-99.99,,2013-02-16 17:45:00,
2013-02-16 12:50:00,37.4,26.0,-100.00,North,-999,-999.0,-999.0,68,-99.99,,,-99.99,,2013-02-16 17:50:00,
2013-02-16 12:55:00,37.0,25.1,-100.00,North,-999,-999.0,-999.0,66,-99.99,,,-99.99,,2013-02-16 17:55:00,
2013-02-16 13:00:00,37.6,25.7,-100.00,North,-999,-999.0,-999.0,67,-99.99,,,-99.99,,2013-02-16 18:00:00,
2013-02-16 13:05:00,37.6,25.7,-100.00,North,-999,-999.0,-999.0,67,-99.99,,,-99.99,,2013-02-16 18:05:00,
2013-02-16 13:10:00,37.0,25.3,-100.00,North,-999,-999.0,-999.0,67,-99.99,,,-99.99,,2013-02-16 18:10:00,
2013-02-16 13:15:00,37.2,25.2,-100.00,North,-999,-999.0,-999.0,66,-99.99,,,-99.99,,2013-02-16 18:15:00,
2013-02-16 13:20:00,37.4,24.5,-100.00,North,-999,-999.0,-999.0,64,-99.99,,,-99.99,,2013-02-16 18:20:00,
2013-02-16 13:25:00,37.6,24.6,-100.00,North,-999,-999.0,-999.0,64,-99.99,,,-99.99,,2013-02-16 18:25:00,
2013-02-16 13:30:00,37.8,24.6,-100.00,North,-999,-999.0,-999.0,63,-99.99,,,-99.99,,2013-02-16 18:30:00,
2013-02-16 13:35:00,37.8,25.6,-100.00,North,-999,-999.0,-999.0,66,-99.99,,,-99.99,,2013-02-16 18:35:00,
2013-02-16 13:40:00,37.9,23.9,-100.00,North,-999,-999.0,-999.0,61,-99.99,,,-99.99,,2013-02-16 18:40:00,
2013-02-16 13:45:00,37.9,23.9,-100.00,North,-999,-999.0,-999.0,61,-99.99,,,-99.99,,2013-02-16 18:45:00,
2013-02-16 13:50:00,38.1,25.8,-100.00,North,-999,-999.0,-999.0,65,-99.99,,,-99.99,,2013-02-16 18:50:00,
2013-02-16 13:55:00,37.8,24.9,-100.00,North,-999,-999.0,-999.0,64,-99.99,,,-99.99,,2013-02-16 18:55:00,
2013-02-16 14:00:00,37.2,24.4,-100.00,North,-999,-999.0,-999.0,64,-99.99,,,-99.99,,2013-02-16 19:00:00,
2013-02-16 14:05:00,37.2,23.6,-100.00,North,-999,-999.0,-999.0,62,-99.99,,,-99.99,,2013-02-16 19:05:00,
2013-02-16 14:10:00,37.4,22.9,-100.00,North,-999,-999.0,-999.0,59,-99.99,,,-99.99,,2013-02-16 19:10:00,
2013-02-16 14:17:00,37.0,22.9,-100.00,North,-999,-999.0,-999.0,60,-99.99,,,-99.99,,2013-02-16 19:17:00,
2013-02-16 14:22:00,37.2,23.8,-100.00,North,-999,-999.0,-999.0,62,-99.99,,,-99.99,,2013-02-16 19:22:00,
2013-02-16 14:27:00,36.9,22.0,-100.00,North,-999,-999.0,-999.0,58,-99.99,,,-99.99,,2013-02-16 19:27:00,
2013-02-16 14:32:00,37.0,22.7,-100.00,North,-999,-999.0,-999.0,60,-99.99,,,-99.99,,2013-02-16 19:32:00,
2013-02-16 14:37:00,37.2,23.0,-100.00,North,-999,-999.0,-999.0,60,-99.99,,,-99.99,,2013-02-16 19:37:00,
2013-02-16 14:42:00,37.4,23.0,-100.00,North,-999,-999.0,-999.0,60,-99.99,,,-99.99,,2013-02-16 19:42:00,
2013-02-16 14:47:00,37.8,22.5,-100.00,North,-999,-999.0,-999.0,57,-99.99,,,-99.99,,2013-02-16 19:47:00,
2013-02-16 14:52:00,37.8,22.0,-100.00,North,-999,-999.0,-999.0,56,-99.99,,,-99.99,,2013-02-16 19:52:00,
2013-02-16 14:57:00,37.6,20.7,-100.00,North,-999,-999.0,-999.0,53,-99.99,,,-99.99,,2013-02-16 19:57:00,
2013-02-16 15:02:00,37.4,21.5,-100.00,North,-999,-999.0,-999.0,55,-99.99,,,-99.99,,2013-02-16 20:02:00,
2013-02-16 15:07:00,37.4,22.6,-100.00,North,-999,-999.0,-999.0,59,-99.99,,,-99.99,,2013-02-16 20:07:00,
2013-02-16 15:12:00,37.4,21.6,-100.00,North,-999,-999.0,-999.0,56,-99.99,,,-99.99,,2013-02-16 20:12:00,
2013-02-16 15:17:00,37.0,21.5,-100.00,North,-999,-999.0,-999.0,56,-99.99,,,-99.99,,2013-02-16 20:17:00,
2013-02-16 15:22:00,36.9,22.8,-100.00,North,-999,-999.0,-999.0,60,-99.99,,,-99.99,,2013-02-16 20:22:00,
2013-02-16 15:27:00,36.7,20.9,-100.00,North,-999,-999.0,-999.0,56,-99.99,,,-99.99,,2013-02-16 20:27:00,
2013-02-16 15:32:00,36.7,22.2,-100.00,North,-999,-999.0,-999.0,59,-99.99,,,-99.99,,2013-02-16 20:32:00,
2013-02-16 15:37:00,36.3,22.5,-100.00,North,-999,-999.0,-999.0,61,-99.99,,,-99.99,,2013-02-16 20:37:00,
2013-02-16 15:42:00,36.0,21.8,-100.00,North,-999,-999.0,-999.0,60,-99.99,,,-99.99,,2013-02-16 20:42:00,
2013-02-16 15:47:00,35.8,21.0,-100.00,North,-999,-999.0,-999.0,58,-99.99,,,-99.99,,2013-02-16 20:47:00,
2013-02-16 15:52:00,35.6,21.3,-100.00,North,-999,-999.0,-999.0,60,-99.99,,,-99.99,,2013-02-16 20:52:00,
2013-02-16 15:57:00,35.6,21.8,-100.00,North,-999,-999.0,-999.0,61,-99.99,,,-99.99,,2013-02-16 20:57:00,
2013-02-16 16:02:00,35.4,22.5,-100.00,North,-999,-999.0,-999.0,64,-99.99,,,-99.99,,2013-02-16 21:02:00,
2013-02-16 16:07:00,35.2,20.2,-100.00,North,-999,-999.0,-999.0,58,-99.99,,,-99.99,,2013-02-16 21:07:00,
2013-02-16 16:12:00,35.1,21.7,-100.00,North,-999,-999.0,-999.0,62,-99.99,,,-99.99,,2013-02-16 21:12:00,
2013-02-16 16:17:00,34.9,19.9,-100.00,North,-999,-999.0,-999.0,58,-99.99,,,-99.99,,2013-02-16 21:17:00,
2013-02-16 16:25:00,34.7,19.3,-100.00,North,-999,-999.0,-999.0,57,-99.99,,,-99.99,,2013-02-16 21:25:00,
2013-02-16 16:30:00,34.5,19.9,-100.00,North,-999,-999.0,-999.0,59,-99.99,,,-99.99,,2013-02-16 21:30:00,
2013-02-16 16:35:00,34.3,18.7,-100.00,North,-999,-999.0,-999.0,56,-99.99,,,-99.99,,2013-02-16 21:35:00,
2013-02-16 16:40:00,34.2,18.0,-100.00,North,-999,-999.0,-999.0,55,-99.99,,,-99.99,,2013-02-16 21:40:00,
2013-02-16 16:45:00,34.0,19.0,-100.00,North,-999,-999.0,-999.0,58,-99.99,,,-99.99,,2013-02-16 21:45:00,
2013-02-16 16:50:00,33.8,19.7,-100.00,North,-999,-999.0,-999.0,60,-99.99,,,-99.99,,2013-02-16 21:50:00,
2013-02-16 16:57:00,33.4,18.4,-100.00,North,-999,-999.0,-999.0,58,-99.99,,,-99.99,,2013-02-16 21:57:00,
2013-02-16 17:02:00,33.4,20.2,-100.00,North,-999,-999.0,-999.0,63,-99.99,,,-99.99,,2013-02-16 22:02:00,
2013-02-16 17:07:00,33.3,18.2,-100.00,North,-999,-999.0,-999.0,58,-99.99,,,-99.99,,2013-02-16 22:07:00,
2013-02-16 17:12:00,33.1,17.8,-100.00,North,-999,-999.0,-999.0,57,-99.99,,,-99.99,,2013-02-16 22:12:00,
2013-02-16 17:17:00,33.1,18.4,-100.00,North,-999,-999.0,-999.0,59,-99.99,,,-99.99,,2013-02-16 22:17:00,
2013-02-16 17:22:00,32.9,19.9,-100.00,North,-999,-999.0,-999.0,63,-99.99,,,-99.99,,2013-02-16 22:22:00,
2013-02-16 17:27:00,32.7,18.6,-100.00,North,-999,-999.0,-999.0,60,-99.99,,,-99.99,,2013-02-16 22:27:00,
2013-02-16 17:32:00,32.5,18.4,-100.00,North,-999,-999.0,-999.0,60,-99.99,,,-99.99,,2013-02-16 22:32:00,
2013-02-16 17:37:00,32.5,18.7,-100.00,North,-999,-999.0,-999.0,61,-99.99,,,-99.99,,2013-02-16 22:37:00,
2013-02-16 17:42:00,32.4,17.3,-100.00,North,-999,-999.0,-999.0,58,-99.99,,,-99.99,,2013-02-16 22:42:00,
2013-02-16 17:47:00,32.4,18.0,-100.00,North,-999,-999.0,-999.0,60,-99.99,,,-99.99,,2013-02-16 22:47:00,
2013-02-16 17:52:00,32.2,18.6,-100.00,North,-999,-999.0,-999.0,62,-99.99,,,-99.99,,2013-02-16 22:52:00,
2013-02-16 17:57:00,32.2,19.1,-100.00,North,-999,-999.0,-999.0,63,-99.99,,,-99.99,,2013-02-16 22:57:00,
2013-02-16 18:02:00,32.2,18.1,-100.00,North,-999,-999.0,-999.0,60,-99.99,,,-99.99,,2013-02-16 23:02:00,
2013-02-16 18:08:00,32.0,18.5,-100.00,North,-999,-999.0,-999.0,62,-99.99,,,-99.99,,2013-02-16 23:08:00,
2013-02-16 18:13:00,31.8,19.1,-100.00,North,-999,-999.0,-999.0,64,-99.99,,,-99.99,,2013-02-16 23:13:00,
2013-02-16 18:18:00,31.8,18.3,-100.00,North,-999,-999.0,-999.0,62,-99.99,,,-99.99,,2013-02-16 23:18:00,
2013-02-16 18:23:00,31.8,19.7,-100.00,North,-999,-999.0,-999.0,66,-99.99,,,-99.99,,2013-02-16 23:23:00,
2013-02-16 18:28:00,31.6,19.4,-100.00,North,-999,-999.0,-999.0,66,-99.99,,,-99.99,,2013-02-16 23:28:00,
2013-02-16 18:33:00,31.6,18.2,-100.00,North,-999,-999.0,-999.0,62,-99.99,,,-99.99,,2013-02-16 23:33:00,
2013-02-16 18:38:00,31.5,18.3,-100.00,North,-999,-999.0,-999.0,63,-99.99,,,-99.99,,2013-02-16 23:38:00,
2013-02-16 18:43:00,31.5,16.7,-100.00,North,-999,-999.0,-999.0,59,-99.99,,,-99.99,,2013-02-16 23:43:00,
2013-02-16 18:48:00,31.3,17.8,-100.00,North,-999,-999.0,-999.0,62,-99.99,,,-99.99,,2013-02-16 23:48:00,
2013-02-16 18:53:00,31.3,18.1,-100.00,North,-999,-999.0,-999.0,63,-99.99,,,-99.99,,2013-02-16 23:53:00,
2013-02-16 18:58:00,31.1,16.8,-100.00,North,-999,-999.0,-999.0,60,-99.99,,,-99.99,,2013-02-16 23:58:00,
2013-02-16 19:03:00,31.1,16.2,-100.00,North,-999,-999.0,-999.0,58,-99.99,,,-99.99,,2013-02-17 00:03:00,
2013-02-16 19:08:00,30.9,15.4,-100.00,North,-999,-999.0,-999.0,56,-99.99,,,-99.99,,2013-02-17 00:08:00,
2013-02-16 19:13:00,30.9,14.4,-100.00,North,-999,-999.0,-999.0,54,-99.99,,,-99.99,,2013-02-17 00:13:00,
2013-02-16 19:18:00,30.7,14.3,-100.00,North,-999,-999.0,-999.0,54,-99.99,,,-99.99,,2013-02-17 00:18:00,
2013-02-16 19:23:00,30.7,15.5,-100.00,North,-999,-999.0,-999.0,57,-99.99,,,-99.99,,2013-02-17 00:23:00,
2013-02-16 19:28:00,30.6,14.8,-100.00,North,-999,-999.0,-999.0,56,-99.99,,,-99.99,,2013-02-17 00:28:00,
2013-02-16 19:33:00,30.6,15.3,-100.00,North,-999,-999.0,-999.0,57,-99.99,,,-99.99,,2013-02-17 00:33:00,
2013-02-16 19:38:00,30.4,15.8,-100.00,North,-999,-999.0,-999.0,59,-99.99,,,-99.99,,2013-02-17 00:38:00,
2013-02-16 19:43:00,30.4,14.8,-100.00,North,-999,-999.0,-999.0,56,-99.99,,,-99.99,,2013-02-17 00:43:00,
2013-02-16 19:48:00,30.4,14.3,-100.00,North,-999,-999.0,-999.0,55,-99.99,,,-99.99,,2013-02-17 00:48:00,
2013-02-16 19:55:00,30.2,16.0,-100.00,North,-999,-999.0,-999.0,60,-99.99,,,-99.99,,2013-02-17 00:55:00,
2013-02-16 20:00:00,30.0,14.7,-100.00,North,-999,-999.0,-999.0,57,-99.99,,,-99.99,,2013-02-17 01:00:00,
2013-02-16 20:05:00,30.0,13.9,-100.00,North,-999,-999.0,-999.0,55,-99.99,,,-99.99,,2013-02-17 01:05:00,
2013-02-16 20:10:00,30.0,14.6,-100.00,North,-999,-999.0,-999.0,57,-99.99,,,-99.99,,2013-02-17 01:10:00,
2013-02-16 20:15:00,30.0,15.3,-100.00,North,-999,-999.0,-999.0,59,-99.99,,,-99.99,,2013-02-17 01:15:00,
2013-02-16 20:20:00,29.8,15.3,-100.00,North,-999,-999.0,-999.0,59,-99.99,,,-99.99,,2013-02-17 01:20:00,
2013-02-16 20:25:00,29.8,17.1,-100.00,North,-999,-999.0,-999.0,64,-99.99,,,-99.99,,2013-02-17 01:25:00,
2013-02-16 20:30:00,29.7,15.2,-100.00,North,-999,-999.0,-999.0,59,-99.99,,,-99.99,,2013-02-17 01:30:00,
2013-02-16 20:35:00,29.7,15.5,-100.00,North,-999,-999.0,-999.0,60,-99.99,,,-99.99,,2013-02-17 01:35:00,
2013-02-16 20:40:00,29.5,15.8,-100.00,North,-999,-999.0,-999.0,62,-99.99,,,-99.99,,2013-02-17 01:40:00,
2013-02-16 20:45:00,29.5,15.6,-100.00,North,-999,-999.0,-999.0,61,-99.99,,,-99.99,,2013-02-17 01:45:00,
2013-02-16 20:50:00,29.5,16.0,-100.00,North,-999,-999.0,-999.0,62,-99.99,,,-99.99,,2013-02-17 01:50:00,
2013-02-16 20:55:00,29.5,17.3,-100.00,North,-999,-999.0,-999.0,66,-99.99,,,-99.99,,2013-02-17 01:55:00,
2013-02-16 21:00:00,29.3,16.6,-100.00,North,-999,-999.0,-999.0,64,-99.99,,,-99.99,,2013-02-17 02:00:00,
2013-02-16 21:05:00,29.1,15.6,-100.00,North,-999,-999.0,-999.0,62,-99.99,,,-99.99,,2013-02-17 02:05:00,
2013-02-16 21:10:00,29.1,14.7,-100.00,North,-999,-999.0,-999.0,60,-99.99,,,-99.99,,2013-02-17 02:10:00,
2013-02-16 21:15:00,29.1,15.6,-100.00,North,-999,-999.0,-999.0,62,-99.99,,,-99.99,,2013-02-17 02:15:00,
2013-02-16 21:20:00,28.9,14.0,-100.00,North,-999,-999.0,-999.0,58,-99.99,,,-99.99,,2013-02-17 02:20:00,
2013-02-16 21:25:00,28.8,13.0,-100.00,North,-999,-999.0,-999.0,56,-99.99,,,-99.99,,2013-02-17 02:25:00,
2013-02-16 21:30:00,28.8,12.7,-100.00,North,-999,-999.0,-999.0,55,-99.99,,,-99.99,,2013-02-17 02:30:00,
2013-02-16 21:35:00,28.8,14.7,-100.00,North,-999,-999.0,-999.0,60,-99.99,,,-99.99,,2013-02-17 02:35:00,
2013-02-16 21:40:00,28.6,14.4,-100.00,North,-999,-999.0,-999.0,60,-99.99,,,-99.99,,2013-02-17 02:40:00,
2013-02-16 21:45:00,28.6,13.5,-100.00,North,-999,-999.0,-999.0,58,-99.99,,,-99.99,,2013-02-17 02:45:00,
2013-02-16 21:50:00,28.6,15.3,-100.00,North,-999,-999.0,-999.0,63,-99.99,,,-99.99,,2013-02-17 02:50:00,
2013-02-16 21:55:00,28.4,14.3,-100.00,North,-999,-999.0,-999.0,60,-99.99,,,-99.99,,2013-02-17 02:55:00,
2013-02-16 22:00:00,28.2,13.3,-100.00,North,-999,-999.0,-999.0,58,-99.99,,,-99.99,,2013-02-17 03:00:00,
2013-02-16 22:06:00,28.0,13.1,-100.00,North,-999,-999.0,-999.0,58,-99.99,,,-99.99,,2013-02-17 03:06:00,
2013-02-16 22:13:00,27.9,13.9,-100.00,North,-999,-999.0,-999.0,61,-99.99,,,-99.99,,2013-02-17 03:13:00,
2013-02-16 22:18:00,27.9,14.4,-100.00,North,-999,-999.0,-999.0,62,-99.99,,,-99.99,,2013-02-17 03:18:00,
2013-02-16 22:23:00,27.5,13.4,-100.00,North,-999,-999.0,-999.0,60,-99.99,,,-99.99,,2013-02-17 03:23:00,
2013-02-16 22:30:00,27.3,14.2,-100.00,North,-999,-999.0,-999.0,63,-99.99,,,-99.99,,2013-02-17 03:30:00,
2013-02-16 22:35:00,27.1,14.8,-100.00,North,-999,-999.0,-999.0,65,-99.99,,,-99.99,,2013-02-17 03:35:00,
2013-02-16 22:40:00,27.1,13.7,-100.00,North,-999,-999.0,-999.0,62,-99.99,,,-99.99,,2013-02-17 03:40:00,
2013-02-16 22:45:00,27.0,14.1,-100.00,North,-999,-999.0,-999.0,64,-99.99,,,-99.99,,2013-02-17 03:45:00,
2013-02-16 22:50:00,27.0,14.3,-100.00,North,-999,-999.0,-999.0,64,-99.99,,,-99.99,,2013-02-17 03:50:00,
2013-02-16 22:55:00,27.0,14.3,-100.00,North,-999,-999.0,-999.0,64,-99.99,,,-99.99,,2013-02-17 03:55:00,
2013-02-16 23:00:00,26.8,15.4,-100.00,North,-999,-999.0,-999.0,68,-99.99,,,-99.99,,2013-02-17 04:00:00,
2013-02-16 23:05:00,26.6,15.6,-100.00,North,-999,-999.0,-999.0,69,-99.99,,,-99.99,,2013-02-17 04:05:00,
2013-02-16 23:10:00,26.6,15.9,-100.00,North,-999,-999.0,-999.0,70,-99.99,,,-99.99,,2013-02-17 04:10:00,
2013-02-16 23:15:00,26.4,15.2,-100.00,North,-999,-999.0,-999.0,68,-99.99,,,-99.99,,2013-02-17 04:15:00,
2013-02-16 23:20:00,26.2,14.7,-100.00,North,-999,-999.0,-999.0,67,-99.99,,,-99.99,,2013-02-17 04:20:00,
2013-02-16 23:25:00,26.2,15.3,-100.00,North,-999,-999.0,-999.0,69,-99.99,,,-99.99,,2013-02-17 04:25:00,
2013-02-16 23:30:00,26.1,14.5,-100.00,North,-999,-999.0,-999.0,67,-99.99,,,-99.99,,2013-02-17 04:30:00,
2013-02-16 23:35:00,25.9,14.5,-100.00,North,-999,-999.0,-999.0,68,-99.99,,,-99.99,,2013-02-17 04:35:00,
2013-02-16 23:40:00,25.9,14.7,-100.00,North,-999,-999.0,-999.0,69,-99.99,,,-99.99,,2013-02-17 04:40:00,
2013-02-16 23:45:00,25.9,13.6,-100.00,North,-999,-999.0,-999.0,65,-99.99,,,-99.99,,2013-02-17 04:45:00,
2013-02-16 23:51:00,25.7,12.1,-100.00,North,-999,-999.0,-999.0,62,-99.99,,,-99.99,,2013-02-17 04:51:00,
2013-02-16 23:58:00,25.3,11.7,-100.00,North,-999,-999.0,-999.0,62,-99.99,,,-99.99,,2013-02-17 04:58:00,